SENTINEL-2B

Last updated on Mon Oct 14 2024 00:02:25 GMT+0000 (Coordinated Universal Time)

1 42063U 17013A 24287.52917685 .00000804 00000+0 32321-3 0 9998 2 42063 98.5689 0.0833 0001009 90.9725 269.1573 14.30809934397179
UTC large
Height (km)
Speed (km/s)
/
Latitude / Longitude
Inclination (degrees)
Orbital Period (minutes)
Azimuth
Elevation
Range (km)
Doppler Factor

Next 0 passes for location: London (51.5072 / 0.1276)

Sorry there are no passes over London.